2011,06,01,00,05,-2.88,1,-99999,99,-3.68,01,0,99,0,99
2011,06,01,00,10,-2.86,1,-99999,99,-3.53,01,0,99,0,99
2011,06,01,00,15,-2.96,1,-99999,99,-3.8,01,0,99,0,99
2011,06,01,00,20,-2.91,1,-99999,99,-3.96,01,0,99,0,99
2011,06,01,00,25,-3.11,1,-99999,99,-4.26,01,0,99,0,99
2011,06,01,00,30,-3.04,1,-99999,99,-4.01,01,0,99,0,99
2011,06,01,00,35,-2.69,1,-99999,99,-3.57,01,0,99,0,99
2011,06,01,00,40,-2.83,1,-99999,99,-3.65,01,0,99,0,99
2011,06,01,00,45,-2.4,1,-99999,99,-3.35,01,0,99,0,99
2011,06,01,00,50,-3.1,1,-99999,99,-3.91,01,0,99,0,99
2011,06,01,00,55,-3.48,1,-99999,99,-4.47,01,0,99,0,99
2011,06,01,01,00,-3.03,1,-99999,99,-4.24,01,0,99,0,99
2011,06,01,01,05,-2.9,1,-99999,99,-3.56,01,0,99,0,99
2011,06,01,01,10,-2.92,1,-99999,99,-3.66,01,0,99,0,99
2011,06,01,01,15,-2.82,1,-99999,99,-3.5,01,0,99,0,99
2011,06,01,01,20,-2.69,1,-99999,99,-3.33,01,0,99,0,99
2011,06,01,01,25,-2.92,1,-99999,99,-3.93,01,0,99,0,99
2011,06,01,01,30,-2.92,1,-99999,99,-3.66,01,0,99,0,99
2011,06,01,01,35,-2.33,1,-99999,99,-2.94,01,0,99,0,99
2011,06,01,01,40,-2.63,1,-99999,99,-3.62,01,0,99,0,99
2011,06,01,01,45,-2.41,1,-99999,99,-3.32,01,0,99,0,99
2011,06,01,01,50,-2.32,1,-99999,99,-3.21,01,0,99,0,99
2011,06,01,01,55,-2.79,1,-99999,99,-3.75,01,0,99,0,99
2011,06,01,02,00,-2.88,1,-99999,99,-3.97,01,0,99,0,99
2011,06,01,02,05,-2.94,1,-99999,99,-4.24,01,0,99,0,99
2011,06,01,02,10,-2.72,1,-99999,99,-3.55,01,0,99,0,99
2011,06,01,02,15,-2.4,1,-99999,99,-3.19,01,0,99,0,99
2011,06,01,02,20,-2.43,1,-99999,99,-3.23,01,0,99,0,99
2011,06,01,02,25,-2.47,1,-99999,99,-3.3,01,0,99,0,99
2011,06,01,02,30,-2.05,1,-99999,99,-2.95,01,0,99,0,99
2011,06,01,02,35,-2.3,1,-99999,99,-3.29,01,0,99,0,99
2011,06,01,02,40,-1.78,1,-99999,99,-2.59,01,0,99,0,99
2011,06,01,02,45,-2.13,1,-99999,99,-2.98,01,0,99,0,99
2011,06,01,02,50,-1.79,1,-99999,99,-2.46,01,0,99,0,99
2011,06,01,02,55,-2.11,1,-99999,99,-3,01,0,99,0,99
2011,06,01,03,00,-2.52,1,-99999,99,-3.4,01,0,99,0,99
2011,06,01,03,05,-2.48,1,-99999,99,-3.48,01,0,99,0,99
2011,06,01,03,10,-1.81,1,-99999,99,-2.75,01,0,99,0,99
2011,06,01,03,15,-2.18,1,-99999,99,-3.19,01,0,99,0,99
2011,06,01,03,20,-2.43,1,-99999,99,-3.45,01,0,99,0,99
2011,06,01,03,25,-2.23,1,-99999,99,-3.25,01,0,99,0,99
2011,06,01,03,30,-2.81,1,-99999,99,-3.87,01,0,99,0,99
2011,06,01,03,35,-2.45,1,-99999,99,-3.42,01,0,99,0,99
2011,06,01,03,40,-2.05,1,-99999,99,-2.96,01,0,99,0,99
2011,06,01,03,45,-1.75,1,-99999,99,-2.21,01,0,99,0,99
2011,06,01,03,50,-1.77,1,-99999,99,-2.46,01,0,99,0,99
2011,06,01,03,55,-1.68,1,-99999,99,-2.41,01,0,99,0,99
2011,06,01,04,00,-2.52,1,-99999,99,-3.48,01,0,99,0,99
2011,06,01,04,05,-2.21,1,-99999,99,-3.32,01,0,99,0,99
2011,06,01,04,10,-2.28,1,-99999,99,-3.35,01,0,99,0,99
2011,06,01,04,15,-2.08,1,-99999,99,-3.06,01,0,99,0,99
2011,06,01,04,20,-2.11,1,-99999,99,-3.11,01,0,99,0,99
2011,06,01,04,25,-1.98,1,-99999,99,-2.78,01,0,99,0,99
2011,06,01,04,30,-2.26,1,-99999,99,-3.2,01,0,99,0,99
2011,06,01,04,35,-2.09,1,-99999,99,-3.2,01,0,99,0,99
2011,06,01,04,40,-2.24,1,-99999,99,-3.24,01,0,99,0,99
2011,06,01,04,45,-2.39,1,-99999,99,-3.18,01,0,99,0,99
2011,06,01,04,50,-2.38,1,-99999,99,-3.22,01,0,99,0,99
2011,06,01,04,55,-1.57,1,-99999,99,-2.22,01,0,99,0,99
2011,06,01,05,00,-0.59,1,-99999,99,-1.42,01,0,99,0,99
2011,06,01,05,05,0.36,1,-99999,99,-0.16,01,0,99,0,99
2011,06,01,05,10,2.34,1,-99999,99,1.96,08,0,99,0,99
2011,06,01,05,15,4.99,1,-99999,99,4.77,01,0,99,0,99
2011,06,01,05,20,8.8,1,-99999,99,9.14,01,0,99,0,99
2011,06,01,05,25,13.87,1,-99999,99,15.02,01,0,99,0,99
2011,06,01,05,30,19.96,1,-99999,99,21.99,01,0,99,0,99
2011,06,01,05,35,26.96,1,-99999,99,29.85,01,0,99,0,99
2011,06,01,05,40,34.83,1,-99999,99,38.31,01,0,99,0,99
2011,06,01,05,45,41.98,1,-99999,99,45.06,01,0,99,0,99
2011,06,01,05,50,47.41,1,-99999,99,52.08,01,0,99,0,99
2011,06,01,05,55,51.48,1,-99999,99,59.84,01,0,99,0,99
2011,06,01,06,00,56.46,1,-99999,99,67.64,01,0,99,0,99
2011,06,01,06,05,63.4,1,-99999,99,75.12,01,0,99,0,99
2011,06,01,06,10,73.72,17,-99999,99,83.46,16,0,99,0,99
2011,06,01,06,15,87.28,2,-99999,99,90.46,02,0,99,0,99
2011,06,01,06,20,104.16,2,-99999,99,99.34,02,0,99,0,99
2011,06,01,06,25,118.98,13,-99999,99,128.35,12,0,99,0,99
2011,06,01,06,30,129.19,1,-99999,99,210.2,08,0,99,0,99
2011,06,01,06,35,138.95,1,-99999,99,321.17,08,0,99,0,99
2011,06,01,06,40,144.31,1,-99999,99,407.34,08,0,99,0,99
2011,06,01,06,45,144.78,1,-99999,99,437.77,08,0,99,0,99
2011,06,01,06,50,149.47,1,-99999,99,413.46,08,0,99,0,99
2011,06,01,06,55,162.56,1,-99999,99,374.97,08,0,99,0,99
2011,06,01,07,00,183.1,1,-99999,99,344.52,08,0,99,0,99
2011,06,01,07,05,204.13,1,-99999,99,316.77,08,0,99,0,99
2011,06,01,07,10,216.54,1,-99999,99,293.63,08,0,99,0,99
2011,06,01,07,15,227.52,41,-99999,99,279.87,40,0,99,0,99
2011,06,01,07,20,244.48,21,-99999,99,275.3,20,0,99,0,99
2011,06,01,07,25,264.36,2,-99999,99,275.62,02,0,99,0,99
2011,06,01,07,30,286.81,2,-99999,99,283.55,02,0,99,0,99
2011,06,01,07,35,312.01,2,-99999,99,310.41,02,0,99,0,99
2011,06,01,07,40,335.85,21,-99999,99,352.66,20,0,99,0,99
2011,06,01,07,45,357.09,33,-99999,99,394.57,32,0,99,0,99
2011,06,01,07,50,375.87,1,-99999,99,427.36,08,0,99,0,99
2011,06,01,07,55,388.85,1,-99999,99,451.69,08,0,99,0,99
2011,06,01,08,00,399.16,1,-99999,99,473.85,08,0,99,0,99
2011,06,01,08,05,411.2,1,-99999,99,493.19,08,0,99,0,99
2011,06,01,08,10,440.04,1,-99999,99,512.1,08,0,99,0,99
2011,06,01,08,15,469.07,1,-99999,99,530.7,08,0,99,0,99
2011,06,01,08,20,474.63,1,-99999,99,549.62,08,0,99,0,99
2011,06,01,08,25,483.7,1,-99999,99,569.79,08,0,99,0,99
2011,06,01,08,30,498.18,1,-99999,99,589.73,08,0,99,0,99
2011,06,01,08,35,515.35,1,-99999,99,611.98,08,0,99,0,99
2011,06,01,08,40,531.95,1,-99999,99,633.3,08,0,99,0,99
2011,06,01,08,45,548.54,1,-99999,99,654.15,08,0,99,0,99
2011,06,01,08,50,561.64,1,-99999,99,669.11,08,0,99,0,99
2011,06,01,08,55,573.34,1,-99999,99,681.48,08,0,99,0,99
2011,06,01,09,00,586.92,1,-99999,99,696.35,08,0,99,0,99
2011,06,01,09,05,595.54,1,-99999,99,701.58,08,0,99,0,99
2011,06,01,09,10,607.85,1,-99999,99,712.91,08,0,99,0,99
2011,06,01,09,15,605.65,1,-99999,99,705.84,08,0,99,0,99
2011,06,01,09,20,584.57,1,-99999,99,666.58,08,0,99,0,99
2011,06,01,09,25,715.22,1,-99999,99,831.81,08,0,99,0,99
2011,06,01,09,30,721.59,1,-99999,99,834.96,08,0,99,0,99
2011,06,01,09,35,474.4,21,-99999,99,519.22,20,0,99,0,99
2011,06,01,09,40,566.37,41,-99999,99,653.5,40,0,99,0,99
2011,06,01,09,45,664.64,1,-99999,99,779.65,08,0,99,0,99
2011,06,01,09,50,642.64,1,-99999,99,756.03,08,0,99,0,99
2011,06,01,09,55,593.75,37,-99999,99,681.42,36,0,99,0,99
2011,06,01,10,00,597.71,41,-99999,99,699.32,40,0,99,0,99
2011,06,01,10,05,714.52,1,-99999,99,847.96,08,0,99,0,99
2011,06,01,10,10,827.04,1,-99999,99,984.09,08,0,99,0,99
2011,06,01,10,15,717.97,1,-99999,99,843.98,08,0,99,0,99
2011,06,01,10,20,745.05,1,-99999,99,874,08,0,99,0,99
2011,06,01,10,25,744.38,1,-99999,99,872.15,08,0,99,0,99
2011,06,01,10,30,786.23,1,-99999,99,926.48,08,0,99,0,99
2011,06,01,10,35,492.14,21,-99999,99,553.02,20,0,99,0,99
2011,06,01,10,40,662.4,49,-99999,99,776.3,48,0,99,0,99
2011,06,01,10,45,929.71,1,-99999,99,1113.77,08,0,99,0,99
2011,06,01,10,50,971.11,1,-99999,99,1159.87,08,0,99,0,99
2011,06,01,10,55,808.47,1,-99999,99,958.47,08,0,99,0,99
2011,06,01,11,00,839.88,1,-99999,99,1006.22,08,0,99,0,99
2011,06,01,11,05,804.1,1,-99999,99,942.51,08,0,99,0,99
2011,06,01,11,10,986.94,1,-99999,99,1192.04,08,0,99,0,99
2011,06,01,11,15,670.91,45,-99999,99,794.17,44,0,99,0,99
2011,06,01,11,20,822.43,1,-99999,99,978.43,08,0,99,0,99
2011,06,01,11,25,739.54,1,-99999,99,873.34,08,0,99,0,99
2011,06,01,11,30,971.5,1,-99999,99,1182.42,08,0,99,0,99
2011,06,01,11,35,868.28,1,-99999,99,1052.41,08,0,99,0,99
2011,06,01,11,40,948.94,1,-99999,99,1161.54,08,0,99,0,99
2011,06,01,11,45,982.36,1,-99999,99,1209.35,08,0,99,0,99
2011,06,01,11,50,928.91,1,-99999,99,1135.35,08,0,99,0,99
2011,06,01,11,55,998.98,1,-99999,99,1225.27,08,0,99,0,99
2011,06,01,12,00,1003.9,1,-99999,99,1224.91,08,0,99,0,99
2011,06,01,12,05,992.44,1,-99999,99,1203.24,08,0,99,0,99
2011,06,01,12,10,986.13,1,-99999,99,1184.35,08,0,99,0,99
2011,06,01,12,15,1005.5,1,-99999,99,1222.15,08,0,99,0,99
2011,06,01,12,20,977.94,1,-99999,99,1204.19,08,0,99,0,99
2011,06,01,12,25,980.22,1,-99999,99,1204.07,08,0,99,0,99
2011,06,01,12,30,950.16,1,-99999,99,1153.74,08,0,99,0,99
2011,06,01,12,35,669.34,45,-99999,99,790.13,44,0,99,0,99
2011,06,01,12,40,969.65,1,-99999,99,1188.23,08,0,99,0,99
2011,06,01,12,45,930.29,1,-99999,99,1124.47,08,0,99,0,99
2011,06,01,12,50,928.33,1,-99999,99,1127.71,08,0,99,0,99
2011,06,01,12,55,952.97,1,-99999,99,1166.67,08,0,99,0,99
2011,06,01,13,00,943.37,1,-99999,99,1157.84,08,0,99,0,99
2011,06,01,13,05,745.43,1,-99999,99,897.12,08,0,99,0,99
2011,06,01,13,10,407.22,21,-99999,99,467.41,20,0,99,0,99
2011,06,01,13,15,843.75,1,-99999,99,1022.19,08,0,99,0,99
2011,06,01,13,20,904.97,1,-99999,99,1108.53,08,0,99,0,99
2011,06,01,13,25,909.62,1,-99999,99,1110.86,08,0,99,0,99
2011,06,01,13,30,904.62,1,-99999,99,1110.79,08,0,99,0,99
2011,06,01,13,35,770.48,1,-99999,99,929.42,08,0,99,0,99
2011,06,01,13,40,898.59,1,-99999,99,1087.88,08,0,99,0,99
2011,06,01,13,45,850.82,1,-99999,99,1037.85,08,0,99,0,99
2011,06,01,13,50,884.62,1,-99999,99,1078.35,08,0,99,0,99
2011,06,01,13,55,870.62,1,-99999,99,1059.94,08,0,99,0,99
2011,06,01,14,00,866.86,1,-99999,99,1055.23,08,0,99,0,99
2011,06,01,14,05,853.23,1,-99999,99,1037.62,08,0,99,0,99
2011,06,01,14,10,835.55,1,-99999,99,1014.5,08,0,99,0,99
2011,06,01,14,15,831.28,1,-99999,99,1008.06,08,0,99,0,99
2011,06,01,14,20,825.03,1,-99999,99,999.25,08,0,99,0,99
2011,06,01,14,25,829.61,1,-99999,99,1003.99,08,0,99,0,99
2011,06,01,14,30,831.58,1,-99999,99,1001.41,08,0,99,0,99
2011,06,01,14,35,696.2,1,-99999,99,830.3,08,0,99,0,99
2011,06,01,14,40,722.73,1,-99999,99,861.78,08,0,99,0,99
2011,06,01,14,45,806.15,1,-99999,99,960.26,08,0,99,0,99
2011,06,01,14,50,810.36,1,-99999,99,970.27,08,0,99,0,99
2011,06,01,14,55,808.96,1,-99999,99,973.48,08,0,99,0,99
2011,06,01,15,00,788.42,1,-99999,99,945.84,08,0,99,0,99
2011,06,01,15,05,767.21,1,-99999,99,917.16,08,0,99,0,99
2011,06,01,15,10,731.62,1,-99999,99,870.79,08,0,99,0,99
2011,06,01,15,15,713.07,1,-99999,99,846.66,08,0,99,0,99
2011,06,01,15,20,687.09,1,-99999,99,811.39,08,0,99,0,99
2011,06,01,15,25,674.94,1,-99999,99,793.99,08,0,99,0,99
2011,06,01,15,30,651.31,1,-99999,99,765.09,08,0,99,0,99
2011,06,01,15,35,605.07,1,-99999,99,710.67,08,0,99,0,99
2011,06,01,15,40,643.01,1,-99999,99,759.28,08,0,99,0,99
2011,06,01,15,45,614.63,1,-99999,99,726.47,08,0,99,0,99
2011,06,01,15,50,631.04,1,-99999,99,751.83,08,0,99,0,99
2011,06,01,15,55,593.37,1,-99999,99,705.42,08,0,99,0,99
2011,06,01,16,00,571.19,1,-99999,99,679.16,08,0,99,0,99
2011,06,01,16,05,571.12,1,-99999,99,678.28,08,0,99,0,99
2011,06,01,16,10,560.54,1,-99999,99,664.58,08,0,99,0,99
2011,06,01,16,15,538.94,1,-99999,99,636.27,08,0,99,0,99
2011,06,01,16,20,417.51,41,-99999,99,486.75,40,0,99,0,99
2011,06,01,16,25,416.5,41,-99999,99,485.89,40,0,99,0,99
2011,06,01,16,30,472.72,1,-99999,99,554.21,08,0,99,0,99
2011,06,01,16,35,392.32,37,-99999,99,454.28,36,0,99,0,99
2011,06,01,16,40,449.63,1,-99999,99,523.69,08,0,99,0,99
2011,06,01,16,45,435.31,1,-99999,99,508.14,08,0,99,0,99
2011,06,01,16,50,354.92,37,-99999,99,411.68,36,0,99,0,99
2011,06,01,16,55,408.81,1,-99999,99,477.44,08,0,99,0,99
2011,06,01,17,00,392.15,1,-99999,99,458.43,08,0,99,0,99
2011,06,01,17,05,372.51,1,-99999,99,435.73,08,0,99,0,99
2011,06,01,17,10,338.36,45,-99999,99,395.12,44,0,99,0,99
2011,06,01,17,15,368.54,1,-99999,99,431.69,08,0,99,0,99
2011,06,01,17,20,364.89,1,-99999,99,425.57,08,0,99,0,99
2011,06,01,17,25,348.32,1,-99999,99,404.48,08,0,99,0,99
2011,06,01,17,30,329.43,1,-99999,99,381.33,08,0,99,0,99
2011,06,01,17,35,101.05,2,-99999,99,112.01,02,0,99,0,99
2011,06,01,17,40,58.12,2,-99999,99,63.35,02,0,99,0,99
2011,06,01,17,45,72.64,2,-99999,99,81.02,02,0,99,0,99
2011,06,01,17,50,92.67,13,-99999,99,105.29,12,0,99,0,99
2011,06,01,17,55,48.24,2,-99999,99,53.22,02,0,99,0,99
2011,06,01,18,00,47.14,2,-99999,99,50.25,02,0,99,0,99
2011,06,01,18,05,38.32,2,-99999,99,43.62,02,0,99,0,99
2011,06,01,18,10,25.19,2,-99999,99,34.52,02,0,99,0,99
2011,06,01,18,15,25.82,2,-99999,99,26.47,02,0,99,0,99
2011,06,01,18,20,31.71,2,-99999,99,32.15,02,0,99,0,99
2011,06,01,18,25,41.46,2,-99999,99,45.15,02,0,99,0,99
2011,06,01,18,30,41.8,2,-99999,99,44.95,02,0,99,0,99
2011,06,01,18,35,51.77,2,-99999,99,56.26,02,0,99,0,99
2011,06,01,18,40,83.83,2,-99999,99,90.71,02,0,99,0,99
2011,06,01,18,45,85.17,1,-99999,99,92.48,01,0,99,0,99
2011,06,01,18,50,84.81,1,-99999,99,92.09,01,0,99,0,99
2011,06,01,18,55,82.18,1,-99999,99,88.66,01,0,99,0,99
2011,06,01,19,00,80.42,1,-99999,99,86.5,01,0,99,0,99
2011,06,01,19,05,72.12,1,-99999,99,77.51,01,0,99,0,99
2011,06,01,19,10,63.03,1,-99999,99,67.32,01,0,99,0,99
2011,06,01,19,15,55.93,1,-99999,99,59.64,08,0,99,0,99
2011,06,01,19,20,48.2,1,-99999,99,51.33,08,0,99,0,99
2011,06,01,19,25,38.69,1,-99999,99,41.02,08,0,99,0,99
2011,06,01,19,30,28.16,1,-99999,99,29.19,08,0,99,0,99
2011,06,01,19,35,18.63,8,-99999,99,18.82,08,0,99,0,99
2011,06,01,19,40,11.72,8,-99999,99,11.77,08,0,99,0,99
2011,06,01,19,45,3.46,1,-99999,99,2.7,01,0,99,0,99
2011,06,01,19,50,-0.71,1,-99999,99,-1.74,01,0,99,0,99
2011,06,01,19,55,-4.56,1,-99999,99,-5.59,01,0,99,0,99
2011,06,01,20,00,-5.51,1,-99999,99,-6.76,01,0,99,0,99
2011,06,01,20,05,-5.06,1,-99999,99,-5.95,01,0,99,0,99
2011,06,01,20,10,-4.75,1,-99999,99,-5.54,01,0,99,0,99
2011,06,01,20,15,-4.9,1,-99999,99,-5.71,01,0,99,0,99
2011,06,01,20,20,-4.91,1,-99999,99,-5.71,01,0,99,0,99
2011,06,01,20,25,-5.2,1,-99999,99,-6.01,01,0,99,0,99
2011,06,01,20,30,-5.82,1,-99999,99,-7.11,01,0,99,0,99
2011,06,01,20,35,-5.7,1,-99999,99,-6.88,01,0,99,0,99
2011,06,01,20,40,-5.16,1,-99999,99,-6.06,01,0,99,0,99
2011,06,01,20,45,-3.95,1,-99999,99,-4.99,01,0,99,0,99
2011,06,01,20,50,-3.09,1,-99999,99,-4.28,01,0,99,0,99
2011,06,01,20,55,-3.53,1,-99999,99,-4.48,01,0,99,0,99
2011,06,01,21,00,-4.29,1,-99999,99,-5.02,01,0,99,0,99
2011,06,01,21,05,-4.18,1,-99999,99,-4.86,01,0,99,0,99
2011,06,01,21,10,-3.82,1,-99999,99,-4.63,01,0,99,0,99
2011,06,01,21,15,-3.82,1,-99999,99,-4.6,01,0,99,0,99
2011,06,01,21,20,-3.5,1,-99999,99,-4.48,01,0,99,0,99
2011,06,01,21,25,-3.63,1,-99999,99,-4.45,01,0,99,0,99
2011,06,01,21,30,-4.36,1,-99999,99,-4.91,01,0,99,0,99
2011,06,01,21,35,-5.3,1,-99999,99,-6.06,01,0,99,0,99
2011,06,01,21,40,-5.45,1,-99999,99,-6.62,01,0,99,0,99
2011,06,01,21,45,-5.23,1,-99999,99,-6.15,01,0,99,0,99
2011,06,01,21,50,-4.65,1,-99999,99,-5.57,01,0,99,0,99
2011,06,01,21,55,-4.47,1,-99999,99,-5.18,01,0,99,0,99
2011,06,01,22,00,-5.68,1,-99999,99,-6.43,01,0,99,0,99
2011,06,01,22,05,-5.86,1,-99999,99,-6.77,01,0,99,0,99
2011,06,01,22,10,-5.45,1,-99999,99,-5.99,01,0,99,0,99
2011,06,01,22,15,-5.28,1,-99999,99,-5.67,01,0,99,0,99
2011,06,01,22,20,-4.25,1,-99999,99,-5.01,01,0,99,0,99
2011,06,01,22,25,-3.94,1,-99999,99,-4.58,01,0,99,0,99
2011,06,01,22,30,-3.84,1,-99999,99,-4.5,01,0,99,0,99
2011,06,01,22,35,-4.01,1,-99999,99,-4.53,01,0,99,0,99
2011,06,01,22,40,-4.11,1,-99999,99,-4.57,01,0,99,0,99
2011,06,01,22,45,-4.59,1,-99999,99,-4.82,01,0,99,0,99
2011,06,01,22,50,-4.15,1,-99999,99,-4.54,01,0,99,0,99
2011,06,01,22,55,-3.95,1,-99999,99,-4.49,01,0,99,0,99
2011,06,01,23,00,-3.48,1,-99999,99,-4.4,01,0,99,0,99
2011,06,01,23,05,-3.91,1,-99999,99,-4.49,01,0,99,0,99
2011,06,01,23,10,-3.63,1,-99999,99,-4.44,01,0,99,0,99
2011,06,01,23,15,-3.1,1,-99999,99,-3.92,01,0,99,0,99
2011,06,01,23,20,-2.81,1,-99999,99,-3.5,01,0,99,0,99
2011,06,01,23,25,-2.93,1,-99999,99,-3.81,01,0,99,0,99
2011,06,01,23,30,-2.92,1,-99999,99,-3.82,01,0,99,0,99
2011,06,01,23,35,-2.58,1,-99999,99,-3.21,01,0,99,0,99
2011,06,01,23,40,-2.59,1,-99999,99,-3.35,01,0,99,0,99
2011,06,01,23,45,-2.38,1,-99999,99,-3.36,01,0,99,0,99
2011,06,01,23,50,-2.23,1,-99999,99,-3.06,01,0,99,0,99
2011,06,01,23,55,-1.9,1,-99999,99,-2.88,01,0,99,0,99
2011,06,02,00,00,-2.22,1,-99999,99,-3.14,01,0,99,0,99
2011,06,02,00,05,-2.44,1,-99999,99,-3.34,01,0,99,0,99
2011,06,02,00,10,-2.83,1,-99999,99,-3.75,01,0,99,0,99
2011,06,02,00,15,-2.89,1,-99999,99,-3.81,01,0,99,0,99
2011,06,02,00,20,-2.43,1,-99999,99,-3.1,01,0,99,0,99
2011,06,02,00,25,-2.16,1,-99999,99,-3.06,01,0,99,0,99
2011,06,02,00,30,-2.78,1,-99999,99,-3.86,01,0,99,0,99
2011,06,02,00,35,-2.72,1,-99999,99,-3.9,01,0,99,0,99
2011,06,02,00,40,-1.99,1,-99999,99,-2.88,01,0,99,0,99
2011,06,02,00,45,-1.98,1,-99999,99,-2.65,01,0,99,0,99
2011,06,02,00,50,-2.41,1,-99999,99,-3.34,01,0,99,0,99
2011,06,02,00,55,-2.53,1,-99999,99,-3.46,01,0,99,0,99
2011,06,02,01,00,-2.78,1,-99999,99,-3.88,01,0,99,0,99
2011,06,02,01,05,-2.82,1,-99999,99,-3.87,01,0,99,0,99
2011,06,02,01,10,-2.75,1,-99999,99,-3.78,01,0,99,0,99
2011,06,02,01,15,-2.49,1,-99999,99,-3.36,01,0,99,0,99
2011,06,02,01,20,-2.63,1,-99999,99,-3.48,01,0,99,0,99
2011,06,02,01,25,-2.95,1,-99999,99,-4.12,01,0,99,0,99
2011,06,02,01,30,-2.97,1,-99999,99,-4.14,01,0,99,0,99
2011,06,02,01,35,-2.83,1,-99999,99,-3.83,01,0,99,0,99
2011,06,02,01,40,-2.67,1,-99999,99,-3.72,01,0,99,0,99
2011,06,02,01,45,-2.89,1,-99999,99,-3.92,01,0,99,0,99
2011,06,02,01,50,-2.78,1,-99999,99,-3.72,01,0,99,0,99
2011,06,02,01,55,-2.47,1,-99999,99,-3.41,01,0,99,0,99
2011,06,02,02,00,-2.49,1,-99999,99,-3.36,01,0,99,0,99
2011,06,02,02,05,-2.55,1,-99999,99,-3.55,01,0,99,0,99
2011,06,02,02,10,-2.66,1,-99999,99,-3.53,01,0,99,0,99
2011,06,02,02,15,-2.7,1,-99999,99,-3.49,01,0,99,0,99
2011,06,02,02,20,-2.63,1,-99999,99,-3.55,01,0,99,0,99
2011,06,02,02,25,-2.88,1,-99999,99,-4.08,01,0,99,0,99
2011,06,02,02,30,-3.04,1,-99999,99,-4.36,01,0,99,0,99
2011,06,02,02,35,-3.14,1,-99999,99,-4.43,01,0,99,0,99
2011,06,02,02,40,-3.05,1,-99999,99,-4.5,01,0,99,0,99
2011,06,02,02,45,-3.01,1,-99999,99,-4.36,01,0,99,0,99
2011,06,02,02,50,-3.74,1,-99999,99,-4.52,01,0,99,0,99
2011,06,02,02,55,-3.49,1,-99999,99,-4.37,01,0,99,0,99
2011,06,02,03,00,-2.86,1,-99999,99,-3.84,01,0,99,0,99
2011,06,02,03,05,-2.91,1,-99999,99,-4.28,01,0,99,0,99
2011,06,02,03,10,-2.74,1,-99999,99,-3.8,01,0,99,0,99
2011,06,02,03,15,-2.7,1,-99999,99,-3.63,01,0,99,0,99
2011,06,02,03,20,-2.72,1,-99999,99,-3.39,01,0,99,0,99
2011,06,02,03,25,-3.18,1,-99999,99,-4.12,01,0,99,0,99
2011,06,02,03,30,-3.35,1,-99999,99,-4.48,01,0,99,0,99
2011,06,02,03,35,-3.12,1,-99999,99,-4.36,01,0,99,0,99
2011,06,02,03,40,-2.91,1,-99999,99,-4.12,01,0,99,0,99
2011,06,02,03,45,-2.77,1,-99999,99,-3.99,01,0,99,0,99
2011,06,02,03,50,-2.71,1,-99999,99,-3.78,01,0,99,0,99
2011,06,02,03,55,-2.53,1,-99999,99,-3.61,01,0,99,0,99
2011,06,02,04,00,-2.31,1,-99999,99,-3.31,01,0,99,0,99
2011,06,02,04,05,-2.91,1,-99999,99,-4.14,01,0,99,0,99
2011,06,02,04,10,-3.05,1,-99999,99,-4.45,01,0,99,0,99
2011,06,02,04,15,-2.93,1,-99999,99,-4.23,01,0,99,0,99
2011,06,02,04,20,-3.2,1,-99999,99,-4.47,01,0,99,0,99
2011,06,02,04,25,-2.4,1,-99999,99,-3.6,01,0,99,0,99
2011,06,02,04,30,-1.69,1,-99999,99,-2.35,01,0,99,0,99
2011,06,02,04,35,-2.06,1,-99999,99,-2.98,01,0,99,0,99
2011,06,02,04,40,-2.58,1,-99999,99,-3.51,01,0,99,0,99
2011,06,02,04,45,-1.79,1,-99999,99,-2.64,01,0,99,0,99
2011,06,02,04,50,-0.79,1,-99999,99,-1.42,01,0,99,0,99
2011,06,02,04,55,0.08,1,-99999,99,-0.6,01,0,99,0,99
2011,06,02,05,00,1.27,1,-99999,99,0.7,01,0,99,0,99
2011,06,02,05,05,2.49,1,-99999,99,1.93,01,0,99,0,99
2011,06,02,05,10,6.65,1,-99999,99,6.52,08,0,99,0,99
2011,06,02,05,15,12.13,1,-99999,99,12.75,08,0,99,0,99
2011,06,02,05,20,16.28,1,-99999,99,16.71,01,0,99,0,99
2011,06,02,05,25,19.05,1,-99999,99,20.03,01,0,99,0,99
2011,06,02,05,30,25.05,1,-99999,99,26.87,01,0,99,0,99
2011,06,02,05,35,28.7,1,-99999,99,30.05,01,0,99,0,99
2011,06,02,05,40,28.21,1,-99999,99,29.08,01,0,99,0,99
2011,06,02,05,45,27.53,1,-99999,99,29.05,01,0,99,0,99
2011,06,02,05,50,41.11,1,-99999,99,43.44,01,0,99,0,99
2011,06,02,05,55,54.64,1,-99999,99,57.71,01,0,99,0,99
2011,06,02,06,00,55.7,1,-99999,99,59,01,0,99,0,99
2011,06,02,06,05,62.93,1,-99999,99,66.85,01,0,99,0,99
2011,06,02,06,10,76.61,2,-99999,99,81.46,02,0,99,0,99
2011,06,02,06,15,83.96,2,-99999,99,89.07,02,0,99,0,99
2011,06,02,06,20,73.03,2,-99999,99,77.33,02,0,99,0,99
2011,06,02,06,25,84.48,2,-99999,99,90.67,02,0,99,0,99
2011,06,02,06,30,88.84,2,-99999,99,93.45,02,0,99,0,99
2011,06,02,06,35,96.58,2,-99999,99,101.25,02,0,99,0,99
2011,06,02,06,40,126.96,2,-99999,99,135.57,02,0,99,0,99
2011,06,02,06,45,150.68,2,-99999,99,160.51,02,0,99,0,99
2011,06,02,06,50,184.63,21,-99999,99,205.38,20,0,99,0,99
2011,06,02,06,55,211.69,37,-99999,99,246.43,36,0,99,0,99
2011,06,02,07,00,188.58,29,-99999,99,220.93,28,0,99,0,99
2011,06,02,07,05,190.63,53,-99999,99,251.95,52,0,99,0,99
2011,06,02,07,10,230.47,1,-99999,99,368.18,08,0,99,0,99
2011,06,02,07,15,232.95,1,-99999,99,357.37,08,0,99,0,99
2011,06,02,07,20,223.88,65,-99999,99,310.26,64,0,99,0,99
2011,06,02,07,25,236.48,53,-99999,99,311.94,52,0,99,0,99
2011,06,02,07,30,327.79,1,-99999,99,418.76,08,0,99,0,99
2011,06,02,07,35,349.48,1,-99999,99,424.27,08,0,99,0,99
2011,06,02,07,40,402.7,1,-99999,99,466.67,08,0,99,0,99
2011,06,02,07,45,474.22,1,-99999,99,541.3,08,0,99,0,99
2011,06,02,07,50,490.4,1,-99999,99,552.25,08,0,99,0,99
2011,06,02,07,55,358.21,37,-99999,99,403.57,36,0,99,0,99
2011,06,02,08,00,385.85,45,-99999,99,445.55,44,0,99,0,99
2011,06,02,08,05,465.77,1,-99999,99,546.27,08,0,99,0,99
2011,06,02,08,10,431.59,1,-99999,99,507.03,08,0,99,0,99
2011,06,02,08,15,497.82,1,-99999,99,590.47,08,0,99,0,99
2011,06,02,08,20,488.76,1,-99999,99,580.29,08,0,99,0,99
2011,06,02,08,25,507.27,1,-99999,99,605.68,08,0,99,0,99
2011,06,02,08,30,454.34,1,-99999,99,528.86,08,0,99,0,99
2011,06,02,08,35,470.72,1,-99999,99,541.42,08,0,99,0,99
2011,06,02,08,40,476.37,1,-99999,99,551.56,08,0,99,0,99
2011,06,02,08,45,550.95,1,-99999,99,651.64,08,0,99,0,99
2011,06,02,08,50,532.42,1,-99999,99,630.66,08,0,99,0,99
2011,06,02,08,55,563.22,1,-99999,99,670.34,08,0,99,0,99
2011,06,02,09,00,514.53,1,-99999,99,601.97,08,0,99,0,99
2011,06,02,09,05,456.75,33,-99999,99,526.01,32,0,99,0,99
2011,06,02,09,10,536.31,1,-99999,99,626.94,08,0,99,0,99
2011,06,02,09,15,587.66,1,-99999,99,693.44,08,0,99,0,99
2011,06,02,09,20,586.55,1,-99999,99,696.74,08,0,99,0,99
2011,06,02,09,25,684.07,1,-99999,99,824.63,08,0,99,0,99
2011,06,02,09,30,738.95,1,-99999,99,902.98,08,0,99,0,99
2011,06,02,09,35,755.94,1,-99999,99,920.85,08,0,99,0,99
2011,06,02,09,40,724.66,1,-99999,99,874.24,08,0,99,0,99
2011,06,02,09,45,673.46,1,-99999,99,784.03,08,0,99,0,99
2011,06,02,09,50,713.08,1,-99999,99,840.15,08,0,99,0,99
2011,06,02,09,55,713.35,1,-99999,99,843.1,08,0,99,0,99
2011,06,02,10,00,710.83,1,-99999,99,842.01,08,0,99,0,99
2011,06,02,10,05,763.27,1,-99999,99,902.95,08,0,99,0,99
2011,06,02,10,10,749.14,1,-99999,99,890.1,08,0,99,0,99
2011,06,02,10,15,785.33,1,-99999,99,932.14,08,0,99,0,99
2011,06,02,10,20,617.17,37,-99999,99,701.22,36,0,99,0,99
2011,06,02,10,25,595.95,25,-99999,99,660.8,24,0,99,0,99
2011,06,02,10,30,669.96,33,-99999,99,748.09,32,0,99,0,99
2011,06,02,10,35,575.1,17,-99999,99,622.3,16,0,99,0,99
2011,06,02,10,40,608.71,21,-99999,99,662.78,20,0,99,0,99
2011,06,02,10,45,718.6,1,-99999,99,806.81,08,0,99,0,99
2011,06,02,10,50,708.24,1,-99999,99,798.96,08,0,99,0,99
2011,06,02,10,55,718.31,1,-99999,99,815.89,08,0,99,0,99
2011,06,02,11,00,692.63,41,-99999,99,784.26,40,0,99,0,99
2011,06,02,11,05,841.74,1,-99999,99,988.94,08,0,99,0,99
2011,06,02,11,10,885.73,1,-99999,99,1067.78,08,0,99,0,99
2011,06,02,11,15,874.32,1,-99999,99,1045.51,08,0,99,0,99
2011,06,02,11,20,826.8,1,-99999,99,985.45,08,0,99,0,99
2011,06,02,11,25,777.6,1,-99999,99,920.4,08,0,99,0,99
2011,06,02,11,30,857.69,1,-99999,99,1023.26,08,0,99,0,99
2011,06,02,11,35,930.97,1,-99999,99,1125.07,08,0,99,0,99
2011,06,02,11,40,808.79,1,-99999,99,967.37,08,0,99,0,99
2011,06,02,11,45,879.82,1,-99999,99,1062.65,08,0,99,0,99
2011,06,02,11,50,856.87,1,-99999,99,1034.93,08,0,99,0,99
2011,06,02,11,55,932.17,1,-99999,99,1135.93,08,0,99,0,99
2011,06,02,12,00,946.6,1,-99999,99,1162.45,08,0,99,0,99
2011,06,02,12,05,896.41,1,-99999,99,1098.96,08,0,99,0,99
2011,06,02,12,10,998.41,1,-99999,99,1239.99,08,0,99,0,99
2011,06,02,12,15,953.11,1,-99999,99,1185.58,08,0,99,0,99
2011,06,02,12,20,987.77,1,-99999,99,1224.43,08,0,99,0,99
2011,06,02,12,25,973.01,1,-99999,99,1202.76,08,0,99,0,99